Weather History for Verona, Italy

Change the Weather History Date:

Thursday, September 5, 2013

  Actual Average Record
Temperature  
Mean Temperature 76 °F -  
Max Temperature 88 °F 74 °F 89 °F (2006)
Min Temperature 65 °F 55 °F 51 °F (2000)
Cooling Degree Days 12    
Growing Degree Days 26 (Base 50)    
Moisture  
Dew Point 66 °F    
Average Humidity 71    
Maximum Humidity 94    
Minimum Humidity 40    
Precipitation  
Precipitation 0.00 in 0.09 in - ()
Sea Level Pressure  
Sea Level Pressure 30.06 in    
Wind  
Wind Speed 4 mph ()    
Max Wind Speed 10 mph    
Max Gust Speed -    
Visibility 5.5 miles    
Events      
Averages and records for this station are not official NWS values.
T = Trace of Precipitation, MM = Missing Value Source: Averaged Metar Reports

Daily Weather History Graph

Daily Weather History Graph

Search for Another Location

Airport:

Trip Planner

Search our weather history database for the weather conditions in past years. The results will help you decide how hot, cold, wet, or windy it might be!

Date:

Astronomy

Sep. 05, 2013 Rise Set
Actual Time 6:42 AM CEST 7:46 PM CEST
Civil Twilight 6:12 AM CEST 8:16 PM CEST
Nautical Twilight 5:36 AM CEST 8:52 PM CEST
Astronomical Twilight 4:58 AM CEST 9:30 PM CEST
Moon 6:40 AM CEST (9/5) 7:25 PM CEST (9/5)
Length of Visible Light 14h 04m
Length of Day
13h 03m
Waning Crescent, 0% of the Moon is Illuminated
Sep 5
Waning Crescent
Sep 5
New
Sep 12
First Quarter
Sep 19
Full
Sep 27
Last Quarter

Hourly Weather History & Observations

Time (CEST) Temp. Heat Index Dew Point Humidity Pressure Visibility Wind Dir Wind Speed Gust Speed Precip Events Conditions
12:15 AM 73.4 °F - 66.2 °F 78% 30.15 in - ENE 4.6 mph - N/A   Clear
12:45 AM 73.4 °F - 66.2 °F 78% 30.15 in - NNE 4.6 mph - N/A   Clear
1:15 AM 73.4 °F - 66.2 °F 78% 30.15 in - NNE 4.6 mph - N/A   Clear
1:45 AM 69.8 °F - 66.2 °F 88% 30.15 in - Calm Calm - N/A   Clear
2:00 AM 71 °F - 66 °F 79% 30.16 in 6 mi Calm Calm - -  
2:15 AM 69.8 °F - 66.2 °F 88% 30.15 in - Calm Calm - N/A   Clear
2:45 AM 69.8 °F - 66.2 °F 88% 30.12 in - North 6.9 mph - N/A   Clear
3:15 AM 68.0 °F - 64.4 °F 88% 30.12 in - North 5.8 mph - N/A   Clear
3:45 AM 68.0 °F - 64.4 °F 88% 30.12 in - NNW 5.8 mph - N/A   Clear
4:15 AM 68.0 °F - 64.4 °F 88% 30.12 in - NNW 5.8 mph - N/A   Clear
4:45 AM 68.0 °F - 64.4 °F 88% 30.12 in - NNW 5.8 mph - N/A   Clear
5:00 AM 68 °F - 65 °F 87% 30.12 in 6 mi NNW 5.8 mph - -  
5:15 AM 68.0 °F - 64.4 °F 88% 30.09 in 6.2 mi NNW 5.8 mph - N/A   Scattered Clouds
5:45 AM 68.0 °F - 64.4 °F 88% 30.09 in - NNW 5.8 mph - N/A   Clear
6:15 AM 68.0 °F - 62.6 °F 83% 30.09 in 6.2 mi North 3.5 mph - N/A   Scattered Clouds
6:45 AM 66.2 °F - 64.4 °F 94% 30.09 in 5.0 mi SSW 3.5 mph - N/A   Scattered Clouds
7:15 AM 66.2 °F - 64.4 °F 94% 30.09 in 5.0 mi South 3.5 mph - N/A   Scattered Clouds
7:45 AM 68.0 °F - 64.4 °F 88% 30.09 in 4.3 mi SSW 3.5 mph - N/A   Scattered Clouds
8:00 AM 67 °F - 64 °F 86% 30.10 in 4 mi SSW 3.5 mph - -   Mist
8:15 AM 68.0 °F - 64.4 °F 88% 30.09 in 4.3 mi West 2.3 mph - N/A   Scattered Clouds
8:45 AM 69.8 °F - 66.2 °F 88% 30.09 in 4.3 mi Calm Calm - N/A   Partly Cloudy
9:15 AM 73.4 °F - 68.0 °F 83% 30.09 in 4.3 mi SSE 4.6 mph - N/A   Unknown
9:45 AM 75.2 °F - 68.0 °F 78% 30.09 in 4.3 mi SSE 4.6 mph - N/A   Unknown
10:15 AM 77.0 °F - 68.0 °F 74% 30.09 in 4.3 mi South 2.3 mph - N/A   Unknown
10:45 AM 78.8 °F - 66.2 °F 65% 30.09 in 4.3 mi South 3.5 mph - N/A   Unknown
11:00 AM 78 °F - 67 °F 61% 30.09 in 4 mi South 3.5 mph - -   Mist
11:15 AM 80.6 °F 83.2 °F 68.0 °F 65% 30.06 in 5.0 mi South 1.2 mph - N/A   Unknown
11:45 AM 80.6 °F 82.7 °F 66.2 °F 61% 30.06 in 5.0 mi South 2.3 mph - N/A   Unknown
12:15 PM 82.4 °F 84.6 °F 66.2 °F 58% 30.06 in - South 2.3 mph - N/A   Clear
12:45 PM 82.4 °F 84.6 °F 66.2 °F 58% 30.06 in - SSW 2.3 mph - N/A   Clear
1:15 PM 82.4 °F 83.9 °F 64.4 °F 54% 30.06 in - West 3.5 mph - N/A   Clear
1:45 PM 82.4 °F 84.6 °F 66.2 °F 58% 30.04 in 6.2 mi NW 2.3 mph - N/A   Scattered Clouds
2:00 PM 83 °F - 66 °F 47% 30.05 in 6 mi NW 2.3 mph - -   Partly Cloudy
2:15 PM 84.2 °F 85.6 °F 64.4 °F 51% 30.04 in 6.2 mi WSW 2.3 mph - N/A   Scattered Clouds
2:45 PM 86.0 °F 89.4 °F 68.0 °F 55% 30.01 in 6.2 mi SW 4.6 mph - N/A   Scattered Clouds
3:15 PM 86.0 °F 88.2 °F 66.2 °F 51% 30.01 in 6.2 mi WNW 1.2 mph - N/A   Scattered Clouds
3:45 PM 86.0 °F 87.3 °F 64.4 °F 48% 30.01 in 6.2 mi South 4.6 mph - N/A   Scattered Clouds
4:15 PM 86.0 °F 88.2 °F 66.2 °F 51% 29.98 in 6.2 mi South 4.6 mph - N/A   Scattered Clouds
4:45 PM 86.0 °F 87.3 °F 64.4 °F 48% 29.98 in 6.2 mi SSE 4.6 mph - N/A   Scattered Clouds
5:00 PM 86 °F - 65 °F 40% 29.99 in 6 mi SSE 4.6 mph - -   Partly Cloudy
5:15 PM 86.0 °F 88.2 °F 66.2 °F 51% 29.98 in 6.2 mi ESE 4.6 mph - N/A   Partly Cloudy
5:45 PM 86.0 °F 87.3 °F 64.4 °F 48% 29.98 in 6.2 mi East 3.5 mph - N/A   Partly Cloudy
6:15 PM 86.0 °F 87.3 °F 64.4 °F 48% 29.98 in 6.2 mi ESE 4.6 mph - N/A   Partly Cloudy
6:45 PM 84.2 °F 86.6 °F 66.2 °F 55% 29.98 in 6.2 mi SE 5.8 mph - N/A   Partly Cloudy
7:15 PM 84.2 °F 85.6 °F 64.4 °F 51% 29.98 in - SE 5.8 mph - N/A   Clear
7:45 PM 82.4 °F 84.6 °F 66.2 °F 58% 29.98 in - East 4.6 mph - N/A   Clear
8:00 PM 82 °F - 66 °F 50% 29.97 in 6 mi East 4.6 mph - -  
8:15 PM 80.6 °F 83.2 °F 68.0 °F 65% 29.98 in - East 3.5 mph - N/A   Clear
8:45 PM 78.8 °F - 68.0 °F 69% 29.98 in 6.2 mi East 5.8 mph - N/A   Partly Cloudy
9:15 PM 78.8 °F - 68.0 °F 69% 29.98 in - ENE 10.4 mph - N/A   Clear
9:45 PM 77.0 °F - 68.0 °F 74% 30.01 in - East 9.2 mph - N/A   Clear
10:15 PM 75.2 °F - 68.0 °F 78% 30.01 in - East 4.6 mph - N/A   Clear
10:45 PM 75.2 °F - 68.0 °F 78% 30.01 in - East 5.8 mph - N/A   Clear
11:00 PM 74 °F - 68 °F 76% 30.01 in 6 mi East 5.8 mph - -  
11:15 PM 73.4 °F - 68.0 °F 83% 30.01 in - ENE 5.8 mph - N/A   Clear
11:45 PM 73.4 °F - 66.2 °F 78% 30.01 in - NE 4.6 mph - N/A   Clear